Regional Weather Roundup
Issued by NWS

Home | Current Version | Previous Version | Text Only | Print | Product List | Glossary On
Versions: 1 2 3 4 5 6 7 8 9 10 11 12 13 14 15 16 17 18 19 20 21 22 23 24 25 26 27 28 29 30 31 32 33 34 35 36 37 38 39 40 41 42 43 44 45 46 47 48 49 50
000
ASUS45 KABQ 302301
RWRNM
NEW MEXICO REGIONAL WEATHER ROUNDUP
NATIONAL WEATHER SERVICE ALBUQUERQUE NM
500 PM MDT THU MAR 30 2017

NOTE: "FAIR" MEANS FEW OR NO CLOUDS BELOW 12,000 FEET AGL WITH NO
       SIGNIFICANT WEATHER OR OBSTRUCTIONS TO VISION.

      THIS PRODUCT IS RELEASED AS TWO VERSIONS.  ONE VERSION NEAR
      THE TOP OF THE HOUR CONTAINING PRELIMINARY DATA FROM ALBUQUERQUE
      AND OTHER STATIONS.  A FINAL VERSION WITH ADDITIONAL DATA IS
      ISSUED ABOUT 10 MINUTES AFTER THE HOUR.

NMZ501-503-504-510>518-310000-
NORTHWEST PLATEAU/NORTHCENTRAL MOUNTAINS

CITY           SKY/WX    TMP DP  RH WIND       PRES   REMARKS
FARMINGTON     FAIR      69  14  12 SW17      29.64F
LOS ALAMOS     PTSUNNY   62  20  20 SW10G16   29.81F
SANTA FE       FAIR      65  23  20 SW9G20    29.79F
TAOS             N/A     57  27  30 SW6       29.81F
ANGEL FIRE     FAIR      53  25  33 SW15G26   29.86F

$$
NMZ402-403-502-505>509-310000-
WESTCENTRAL MOUNTAINS/SOUTHWEST MOUNTAINS

CITY           SKY/WX    TMP DP  RH WIND       PRES   REMARKS
GALLUP         FAIR      65  16  15 SW24G39   29.75F
GRANTS         FAIR      68  14  12 W20G29    29.79F
SILVER CITY    FAIR      72  19  13 W23G33    29.87F

$$
NMZ407-409-411-412-310000-
SOUTHERN DESERTS

CITY           SKY/WX    TMP DP  RH WIND       PRES   REMARKS
DEMING         FAIR      78  18  10 W20G30    29.81F
LAS CRUCES     FAIR      77  19  11 W13G26    29.83F
HOLLOMAN AFB   FAIR      78  20  11 SW17G24   29.81F
ALAMOGORDO       N/A    N/A N/A N/A MISG        N/A
T OR C         FAIR      77  19  11 SW21G28   29.76S

$$
NMZ519>523-310000-
CENTRAL VALLEYS/CENTRAL HIGHLANDS

CITY           SKY/WX    TMP DP  RH WIND       PRES   REMARKS
ALBUQUERQUE    PTSUNNY   71  24  17 S15       29.74F
DOUBLE EAGLE   PTSUNNY   72  21  15 SW14G25   29.77F
MORIARTY ARPT  FAIR      69  23  17 W10G23    29.81F
CLINES CORNERS FAIR      63  21  20 W23G33    29.83F
BELEN          FAIR      72  22  15 S20G28    29.74F
SOCORRO        FAIR      75  22  13 S14G22    29.74F

$$
NMZ524>526-539-540-310000-
SOUTHCENTRAL MOUNTAINS

CITY           SKY/WX    TMP DP  RH WIND       PRES   REMARKS
RUIDOSO        NOT AVBL

$$
NMZ527>531-310000-
NORTHEAST HIGHLANDS/NORTHEAST PLAINS

CITY           SKY/WX    TMP DP  RH WIND       PRES   REMARKS
LAS VEGAS      FAIR      63  23  21 SW24      29.78F
RATON          FAIR      68  22  17 W14G20    29.70F
CLAYTON        FAIR      67  27  22 SW9       29.71F

$$
NMZ532>537-310000-
EASTCENTRAL PLAINS

CITY           SKY/WX    TMP DP  RH WIND       PRES   REMARKS
TUCUMCARI      FAIR      74  33  22 SE7       29.67F
CANNON AFB     FAIR      73  29  19 SW10      29.72F
CLOVIS AIRPORT FAIR      72  34  25 SW8G18    29.73F

$$
NMZ028-029-538-310000-
SOUTHEAST PLAINS

CITY           SKY/WX    TMP DP  RH WIND       PRES   REMARKS
ROSWELL        FAIR      81  20  10 VRB5        N/A
ARTESIA        FAIR      81  19  10 SW18G24   29.72F
CARLSBAD       FAIR      82  19   9 SW17G26   29.72F
HOBBS          SUNNY     79  14   8 SW16G23   29.75F


$$



USA.gov is the U.S. government's official web portal to all federal, state and local government web resources and services.